Location: Benque
(43.2594°N, 0.9178°E)
Time: 03:28:20
(UTC+00:00)

Cosmos 1980 - Pass Details

Date: 24 January 2020
Orbit: 838 x 849 km, 71.0° (Epoch: 18 February)

Event Time Altitude Azimuth Distance (km) Brightness Sun altitude
Rises 17:40:24 0° 334° (NNW) 3,421 7.0 -8.2°
Reaches altitude 10° 17:42:52 10° 333° (NNW) 2,482 6.3 -8.6°
Maximum altitude 17:48:34 80° 248° (WSW) 866 3.9 -9.6°
Drops below altitude 10° 17:54:14 10° 162° (SSE) 2,464 6.1 -10.5°
Sets 17:56:40 0° 161° (SSE) 3,395 6.8 -11.0°
